Location: Malanoce
(44.2500°N, 7.4667°E)
Time: 06:12:09
(UTC+00:00)

Meteor 2-12 Rocket - Pass Details

Date: 17 November 2025
Orbit: 934 x 958 km, 82.5° (Epoch: 09 December)

Event Time Altitude Azimuth Distance (km) Brightness Sun altitude
Rises 16:45:35 0° 354° (N) 3,624 7.3 -8.2°
Reaches altitude 10° 16:48:09 10° 359° (N) 2,672 6.6 -8.6°
Maximum altitude 16:54:09 57° 78° (ENE) 1,103 4.5 -9.6°
Drops below altitude 10° 17:00:04 10° 156° (SSE) 2,641 6.7 -10.6°
Sets 17:02:36 0° 160° (SSE) 3,579 7.4 -11.1°
